Alliance, NE

5:59 PM MST on January 21, 2017 (GMT -0700)
Alliance

Weather History for KAIA - August, 2013

Change the Weather History Date:

Tuesday, August 20, 2013

  Actual Average Record
Temperature  
Mean Temperature 80 °F 70 °F  
Max Temperature 102 °F 86 °F 102 °F (2013)
Min Temperature 58 °F 54 °F 38 °F (2004)
Degree Days  
Heating Degree Days 0 1  
Month to date heating degree days 0 9  
Since 1 June heating degree days 70 114  
Since 1 July heating degree days 8 21  
Cooling Degree Days 15 5  
Month to date cooling degree days 134 142  
Year to date cooling degree days 530 474  
Since 1 June cooling degree days 508 464  
Growing Degree Days 30 (Base 50)    
Moisture  
Dew Point 51 °F    
Average Humidity 52    
Maximum Humidity 90    
Minimum Humidity 14    
Precipitation  
Precipitation 0.00 in 0.05 in 0.96 in (1965)
Month to date precipitation 2.34 1.11  
Year to date precipitation 9.06 11.82  
Sea Level Pressure  
Sea Level Pressure 29.80 in    
Wind  
Wind Speed 10 mph (South)    
Max Wind Speed 24 mph    
Max Gust Speed 31 mph    
Visibility 10 miles    
Events      
T = Trace of Precipitation, MM = Missing Value Source: NWS Daily Summary

Daily Weather History Graph

Daily Weather History Graph

Search for Another Location

Airport or City:

Trip Planner

Search our weather history database for the weather conditions in past years. The results will help you decide how hot, cold, wet, or windy it might be!

Date:

Astronomy

Aug. 20, 2013 Rise Set
Actual Time 6:04 AM MDT 7:43 PM MDT
Civil Twilight 5:34 AM MDT 8:13 PM MDT
Nautical Twilight 4:58 AM MDT 8:49 PM MDT
Astronomical Twilight 4:20 AM MDT 9:27 PM MDT
Moon 7:15 PM MDT (8/20) 5:37 AM MDT (8/20)
Length of Visible Light 14h 38m
Length of Day
13h 39m
Full, 100% of the Moon is Illuminated
Aug 20
Full
Aug 20
Full
Aug 28
Last Quarter
Sep 5
New
Sep 12
First Quarter

Hourly Weather History & Observations

Time (MDT) Temp. Heat Index Dew Point Humidity Pressure Visibility Wind Dir Wind Speed Gust Speed Precip Events Conditions
12:53 AM 64.9 °F - 55.0 °F 70% 29.83 in 10.0 mi SSE 9.2 mph - N/A   Clear
1:53 AM 63.0 °F - 54.0 °F 72% 29.81 in 10.0 mi SE 4.6 mph - N/A   Clear
2:53 AM 61.0 °F - 54.0 °F 78% 29.81 in 10.0 mi SE 5.8 mph - N/A   Clear
3:53 AM 61.0 °F - 55.0 °F 81% 29.80 in 10.0 mi SSE 4.6 mph - N/A   Clear
4:53 AM 59.0 °F - 55.0 °F 87% 29.80 in 10.0 mi SSE 6.9 mph - N/A   Clear
5:53 AM 59.0 °F - 55.0 °F 87% 29.81 in 10.0 mi SE 4.6 mph - N/A   Clear
6:53 AM 61.0 °F - 57.0 °F 87% 29.83 in 10.0 mi SE 5.8 mph - N/A   Clear
7:53 AM 70.0 °F - 57.9 °F 65% 29.83 in 10.0 mi SSE 9.2 mph - N/A   Clear
8:53 AM 77.0 °F - 57.9 °F 52% 29.83 in 10.0 mi SSE 8.1 mph - N/A   Clear
9:53 AM 82.0 °F 82.0 °F 57.9 °F 44% 29.82 in 10.0 mi SSE 9.2 mph - N/A   Clear
10:53 AM 89.1 °F 87.7 °F 57.0 °F 34% 29.81 in 10.0 mi SSE 13.8 mph - N/A   Clear
11:53 AM 97.0 °F - 48.0 °F 19% 29.78 in 10.0 mi South 20.7 mph 26.5 mph N/A   Clear
12:53 PM 100.0 °F - 46.0 °F 16% 29.76 in 10.0 mi SW 17.3 mph 23.0 mph N/A   Clear
1:53 PM 100.9 °F - 44.1 °F 14% 29.75 in 10.0 mi SW 19.6 mph 25.3 mph N/A   Clear
2:53 PM 100.0 °F - 44.1 °F 15% 29.74 in 10.0 mi WSW 13.8 mph 23.0 mph N/A   Clear
3:53 PM 100.0 °F - 43.0 °F 14% 29.74 in 10.0 mi SW 11.5 mph 20.7 mph N/A   Clear
4:53 PM 99.0 °F - 41.0 °F 14% 29.74 in 10.0 mi WNW 6.9 mph - N/A   Clear
5:53 PM 96.1 °F - 43.0 °F 16% 29.75 in 10.0 mi South 15.0 mph 20.7 mph N/A   Clear
6:53 PM 91.0 °F 88.5 °F 53.1 °F 27% 29.78 in 10.0 mi North 17.3 mph 24.2 mph N/A   Clear
7:53 PM 86.0 °F - 46.9 °F 26% 29.80 in 10.0 mi South 5.8 mph - N/A   Clear
8:53 PM 81.0 °F - 46.0 °F 29% 29.82 in 10.0 mi SW 6.9 mph - N/A   Clear
9:53 PM 80.1 °F - 48.0 °F 32% 29.83 in 10.0 mi SSW 3.5 mph - N/A   Clear
10:53 PM 75.9 °F - 51.1 °F 42% 29.83 in 10.0 mi Calm Calm - N/A   Clear
11:53 PM 80.1 °F 80.6 °F 57.9 °F 47% 29.82 in 10.0 mi NNE 11.5 mph 24.2 mph N/A   Mostly Cloudy